Weather History for CWSP - October, 2012

Change the Weather History Date:

Friday, October 5, 2012

  Actual Average Record
Temperature  
Mean Temperature 53 °F -  
Max Temperature 58 °F - - ()
Min Temperature 48 °F - - ()
Degree Days  
Heating Degree Days 12    
Growing Degree Days 3 (Base 50)    
Moisture  
Dew Point 37 °F    
Average Humidity 51    
Maximum Humidity 78    
Minimum Humidity 27    
Precipitation  
Precipitation 0.00 in - - ()
Sea Level Pressure  
Sea Level Pressure 30.28 in    
Wind  
Wind Speed 5 mph ()    
Max Wind Speed 15 mph    
Max Gust Speed -    
T = Trace of Precipitation, MM = Missing Value Source: Averaged Metar Reports

Daily Weather History Graph

Daily Weather History Graph

Search for Another Location

Airport or City:

Trip Planner

Search our weather history database for the weather conditions in past years. The results will help you decide how hot, cold, wet, or windy it might be!

Date:

Astronomy

Oct. 05, 2012 Rise Set
Actual Time 7:21 AM PDT 6:45 PM PDT
Civil Twilight 6:50 AM PDT 7:16 PM PDT
Nautical Twilight 6:14 AM PDT 7:52 PM PDT
Astronomical Twilight 5:37 AM PDT 8:29 PM PDT
Moon 9:51 PM PDT (10/5) 12:56 PM PDT (10/5)
Length of Visible Light 12h 26m
Length of Day
11h 23m
Waning Gibbous, 73% of the Moon is Illuminated
Oct 5
Waning Gibbous
Oct 8
Last Quarter
Oct 15
New
Oct 21
First Quarter
Oct 29
Full

Hourly Weather History & Observations

Time (PDT) Temp. Dew Point Humidity Pressure Visibility Wind Dir Wind Speed Gust Speed Precip Events Conditions
12:00 AM 54.7 °F 29.7 °F 38% 30.29 in - ENE 2.3 mph - N/A   Unknown
1:00 AM 51.8 °F 30.6 °F 44% 30.29 in - Calm Calm - N/A   Unknown
2:00 AM 52.3 °F 30.6 °F 43% 30.30 in - Calm Calm - N/A   Unknown
3:00 AM 49.3 °F 31.6 °F 51% 30.30 in - Calm Calm - N/A   Unknown
4:00 AM 50.4 °F 32.0 °F 49% 30.29 in - Calm Calm - N/A   Unknown
5:00 AM 51.6 °F 33.4 °F 50% 30.29 in - East 6.9 mph - N/A   Unknown
6:00 AM 50.9 °F 32.0 °F 48% 30.30 in - East 6.9 mph - N/A   Unknown
7:00 AM 50.5 °F 36.0 °F 57% 30.31 in - East 8.1 mph - N/A   Unknown
8:00 AM 51.1 °F 38.5 °F 62% 30.31 in - East 9.2 mph - N/A   Unknown
9:00 AM 53.4 °F 38.8 °F 58% 30.31 in - East 10.4 mph - N/A   Unknown
10:00 AM 50.9 °F 42.4 °F 73% 30.32 in - East 15.0 mph - N/A   Unknown
11:00 AM 55 °F 41 °F 48% 30.31 in - East 9.2 mph - -  
11:00 AM 55.0 °F 40.8 °F 59% 30.31 in - East 9.2 mph - N/A   Unknown
12:00 PM 51.4 °F 44.8 °F 78% 30.32 in - South 8.1 mph - N/A   Unknown
1:00 PM 53.8 °F 42.6 °F 66% 30.31 in - ESE 10.4 mph - N/A   Unknown
2:00 PM 54.9 °F 43.9 °F 66% 30.29 in - East 8.1 mph - N/A   Unknown
3:00 PM 55.8 °F 44.4 °F 66% 30.28 in - East 6.9 mph - N/A   Unknown
4:00 PM 56.5 °F 40.5 °F 55% 30.26 in - East 9.2 mph - N/A   Unknown
5:00 PM 57 °F 39 °F 40% 30.25 in - East 8.1 mph - -  
5:00 PM 57.0 °F 39.4 °F 52% 30.25 in - East 8.1 mph - N/A   Unknown
6:00 PM 56.5 °F 39.7 °F 54% 30.24 in - East 10.4 mph - N/A   Unknown
7:00 PM 57.6 °F 34.5 °F 42% 30.25 in - ENE 6.9 mph - N/A   Unknown
8:00 PM 57.7 °F 35.4 °F 43% 30.24 in - ENE 5.8 mph - N/A   Unknown
9:00 PM 58.3 °F 34.2 °F 40% 30.23 in - East 5.8 mph - N/A   Unknown
10:00 PM 56.5 °F 33.4 °F 42% 30.24 in - East 4.6 mph - N/A   Unknown
11:00 PM 57 °F 33 °F 27% 30.24 in - East 6.9 mph - -  
11:00 PM 57.0 °F 31.5 °F 38% 30.24 in - East 6.9 mph - N/A   Unknown